Regional Weather Roundup
Issued by NWS

Home | Current Version | Previous Version | Graphics & Text | Print | Product List | Glossary Off
Versions: 1 2 3 4 5 6 7 8 9 10 11 12 13 14 15 16 17 18 19 20 21 22 23 24 25 26 27 28 29 30 31 32 33 34 35 36 37 38 39 40 41 42 43 44 45 46 47 48 49 50

000
ASUS43 KMKX 230600
RWRWI

WISCONSIN REGIONAL WEATHER ROUNDUP
NATIONAL WEATHER SERVICE MILWAUKEE/SULLIVAN WI
100 AM CDT TUE SEP 23 2014

NOTE: "FAIR" INDICATES FEW OR NO CLOUDS BELOW 12,000 FEET WITH NO
SIGNIFICANT WEATHER AND/OR OBSTRUCTIONS TO VISIBILITY.

WIZ001-002-006>008-014>016-023>028-230700-
NORTHWEST WISCONSIN

CITY           SKY/WX    TMP DP  RH WIND       PRES   REMARKS
SUPERIOR ARPT  CLEAR     51  50  94 SW7       30.15S
ASHLAND        CLEAR     55  51  86 SW8       30.17R
6HR MIN TEMP:  54; 6HR MAX TEMP:  60;

HAYWARD        CLEAR     46  45  96 CALM      30.19S
6HR MIN TEMP:  46; 6HR MAX TEMP:  65;

SIREN          CLEAR     49  48  96 CALM      30.18S
CUMBERLAND     CLEAR     45  43  93 CALM      30.20S FOG
RICE LAKE      FOG       48  47  96 CALM      30.21S VSB 1/2
CHETEK         PTCLDY    47  47 100 CALM      30.20S FOG
LADYSMITH      CLEAR     47  46  96 CALM      30.22S
EAU CLAIRE     FOG       48  46  93 CALM      30.20S VSB 1
6HR MIN TEMP:  47; 6HR MAX TEMP:  63;

MENOMONIE      CLEAR     50  48  95 CALM      30.20S
NEW RICHMOND   CLEAR     50  49  95 CALM      30.19S
OSCEOLA        CLEAR     49  49 100 CALM      30.21S
$$

WIZ003>005-009-010-017-018-230700-
NORTH CENTRAL WISCONSIN

CITY           SKY/WX    TMP DP  RH WIND       PRES   REMARKS
MANITOWISH WTR CLEAR     45  45 100 CALM      30.19R FOG
ARBOR VITAE    CLEAR     47  45  93 CALM      30.20R FOG
WOODRUFF       CLEAR     47  45  93 CALM      30.20R FOG
RHINELANDER    CLEAR     48  47  96 W6        30.21R
6HR MIN TEMP:  48; 6HR MAX TEMP:  55;

EAGLE RIVER    CLEAR     46  46 100 W6        30.18S FOG
LAND O LAKES   CLEAR     40  40 100 CALM      30.19S
PHILLIPS       CLEAR     44  44  99 CALM      30.20S
TOMAHAWK       CLEAR     42  41  96 CALM      30.21S FOG
MEDFORD        CLEAR     44  44  98 CALM      30.21S FOG
MERRILL        FOG       41  41 100 CALM      30.21S VSB 1/2
$$

WIZ029-030-035-036-043>047-230700-
CENTRAL WISCONSIN

CITY           SKY/WX    TMP DP  RH WIND       PRES   REMARKS
WAUSAU         CLEAR     49  48  97 NE3       30.20S
6HR MIN TEMP:  49; 6HR MAX TEMP:  60;

MOSINEE        FOG       46  46 100 CALM      30.22F VSB 1/2
MARSHFIELD     FOG       48  46  93 CALM      30.21S VSB 3/4
6HR MIN TEMP:  48; 6HR MAX TEMP:  61;

STEVENS POINT  CLEAR     44  43  98 CALM      30.22S
WAUPACA        CLEAR     49  48  95 CALM      30.22S
WAUTOMA        NOT AVBL
WISC RAPIDS    CLEAR     47  45  93 CALM      30.23S FOG
6HR MIN TEMP:  47; 6HR MAX TEMP:  62;

CAMP DOUGLAS   CLEAR     39  39 100 CALM      30.22S FOG
$$

WIZ011>013-019>022-031-037>040-048>050-230700-
NORTHEAST WISCONSIN

CITY           SKY/WX    TMP DP  RH WIND       PRES   REMARKS
ANTIGO         CLEAR     48  46  95 W5        30.21S
SHAWANO        CLEAR     52  49  90 CALM      30.20S
OCONTO         CLEAR     48  48 100 W5        30.18S
STURGEON BAY   CLEAR     55  48  76 W5        30.20R
6HR MIN TEMP:  54; 6HR MAX TEMP:  61;

GREEN BAY      CLEAR     49  47  93 CALM      30.21R
6HR MIN TEMP:  48; 6HR MAX TEMP:  60;

MANITOWOC      NOT AVBL
APPLETON       CLEAR     50  48  93 W6        30.22S
CLINTONVILLE   CLEAR     50  48  93 W5        30.20F
OSHKOSH        CLEAR     54  49  83 SW3       30.22S
6HR MIN TEMP:  51; 6HR MAX TEMP:  62;

$$

WIZ032>034-041-042-053>061-230700-
SOUTHWEST WISCONSIN

CITY           SKY/WX    TMP DP  RH WIND       PRES   REMARKS
LA CROSSE      CLEAR     53  51  93 SE6       30.22S
6HR MIN TEMP:  53; 6HR MAX TEMP:  65;

SPARTA         CLEAR     43  43 100 CALM      30.23S
VIROQUA        CLEAR     53  48  83 CALM      30.23S
BOSCOBEL       FOG       48  46  93 CALM      30.24S VSB 1/4
6HR MIN TEMP:  47; 6HR MAX TEMP:  64;

PRAIRIE DU CHI CLEAR     49  47  95 CALM      30.24S
PLATTEVILLE    CLEAR     53  48  84 S3        30.25S
$$

WIZ056-057-062-063-064-067-068-230700-
SOUTH CENTRAL WISCONSIN

CITY           SKY/WX    TMP DP  RH WIND       PRES   REMARKS
REEDSBURG      CLEAR     47  47  99 CALM      30.23S
BARABOO/DELLS  CLEAR     49  47  93 CALM      30.23S
LONE ROCK      PTCLDY    50  44  80 CALM      30.24S
MINERAL POINT  CLEAR     54  46  76 S6        30.24S
MADISON        CLEAR     49  47  93 CALM      30.24S
6HR MIN TEMP:  49; 6HR MAX TEMP:  60;

MIDDLETON      CLEAR     46  46  99 CALM      30.24S
WATERTOWN      CLEAR     46  45  95 CALM      30.23S
MONROE         CLEAR     52  46  82 SW7       30.24F
JANESVILLE     CLEAR     48  45  87 CALM      30.24S
$$

WIZ051-052-058>065-066-070>072-230700-
SOUTHEAST WISCONSIN

CITY           SKY/WX    TMP DP  RH WIND       PRES   REMARKS
MILWAUKEE      CLEAR     54  47  77 S5        30.25S
6HR MIN TEMP:  53; 6HR MAX TEMP:  66;

WAUKESHA       CLEAR     45  43  93 CALM      30.25S
MILWAUKEE/TIMM CLEAR     50  45  81 CALM      30.25S
RACINE         CLEAR     52  46  80 SW5       30.27R
6HR MIN TEMP:  51; 6HR MAX TEMP:  58;

BURLINGTON     CLEAR     44  44 100 CALM      30.25S FOG
KENOSHA        CLEAR     47  45  93 SW3       30.26S
6HR MIN TEMP:  47; 6HR MAX TEMP:  63;

FOND DU LAC    CLEAR     50  47  89 SW5       30.23S
6HR MIN TEMP:  50; 6HR MAX TEMP:  62;

SHEBOYGAN      CLEAR     47  46  97 S5        30.22S
6HR MIN TEMP:  47; 6HR MAX TEMP:  58;

WEST BEND      CLEAR     46  43  87 CALM      30.23S
JUNEAU         CLEAR     50  47  90 CALM      30.24F
$$

LSZ147-162-230700-
LAKE SUPERIOR

STATION/POSITION TIME  TEMP    WIND        PRES    WAVE
                       AIR SEA DIR/SP/G            HT/PER
                 (UTC) (F)     (DEG/KT/KT) (MB)    (FT/S)
W MID LAKE BUOY  0450   52 48  230/ 10/ 12 1019.2R   2/ 5
DEVILS ISLAND    0500   57     240/ 15/ 16 1020.2R
PORT WING        0500   58     180/  5/  6 1021.0
SAXON HARBOR     0540   60     200/  8/ 12 1021.0S
$$

LMZ867-665-643>646-230700-
LAKE MICHIGAN

STATION/POSITION TIME  TEMP    WIND        PRES    WAVE
                       AIR SEA DIR/SP/G            HT/PER
                 (UTC) (F)     (DEG/KT/KT) (MB)    (FT/S)
CHAMBERS ISLAND  0500   57     220/  6/ 11 1021.7S
S GREEN BAY BUOY 0500   59                 1022.9
N MID LAKE BUOY  0450   58 57  230/ 14/ 16 1021.2R   3/ 4
NORTHPORT PIER   0500   60     240/  4/ 10 1021.3S
KEWAUNEE LAKESHO 0500   53     300/  4/  4 1021.5R
SHEBOYGAN LAKESH 0500   57 54  250/  8/  9 1023.6F
PORT WASHINGTON  0540   55     270/  3/  5 1024.0S
ATWATER BUOY     0500   58     230/  8/  8 1024.8S
S MID LAKE BUOY  0450   61 62  210/ 14/ 16 1024.5S   2/ 3
KENOSHA   LAKESH 0500   56     240/  7/ 10 1024.0S
$$

TC  - TEMPERATURE IN CELSIUS
VSB - VISIBILITY IN STATUTE MILES
WCI - WIND CHILL INDEX
HX  - HEAT INDEX




USA.gov is the U.S. government's official web portal to all federal, state and local government web resources and services.